TimeCDT,TemperatureF,Dew PointF,Humidity,Sea Level PressureIn,VisibilityMPH,Wind Direction,Wind SpeedMPH,Gust SpeedMPH,PrecipitationIn,Events,Conditions,WindDirDegrees,DateUTC
12:56 AM,77.0,70.0,79,30.14,10.0,Calm,Calm,-,N/A,,Clear,0,2013-07-18 05:56:00
1:56 AM,79.0,70.0,74,30.15,10.0,Calm,Calm,-,N/A,,Clear,0,2013-07-18 06:56:00
2:56 AM,73.9,69.1,85,30.14,10.0,Calm,Calm,-,N/A,,Clear,0,2013-07-18 07:56:00
3:56 AM,75.0,70.0,84,30.12,10.0,Calm,Calm,-,N/A,,Clear,0,2013-07-18 08:56:00
4:56 AM,73.9,70.0,87,30.12,10.0,Calm,Calm,-,N/A,,Partly Cloudy,0,2013-07-18 09:56:00
5:56 AM,73.0,70.0,90,30.13,10.0,Calm,Calm,-,N/A,,Partly Cloudy,0,2013-07-18 10:56:00
6:56 AM,72.0,70.0,93,30.14,10.0,Calm,Calm,-,N/A,,Scattered Clouds,0,2013-07-18 11:56:00
7:56 AM,81.0,72.0,74,30.14,10.0,Calm,Calm,-,N/A,,Scattered Clouds,0,2013-07-18 12:56:00
8:56 AM,84.9,73.0,67,30.15,10.0,NNE,3.5,-,N/A,,Mostly Cloudy,30,2013-07-18 13:56:00
9:56 AM,89.1,71.1,55,30.15,10.0,Calm,Calm,-,N/A,,Scattered Clouds,0,2013-07-18 14:56:00
10:56 AM,91.0,71.1,52,30.15,10.0,SSE,4.6,-,N/A,,Mostly Cloudy,150,2013-07-18 15:56:00
11:56 AM,93.0,70.0,47,30.14,10.0,Calm,Calm,-,N/A,,Mostly Cloudy,0,2013-07-18 16:56:00
12:56 PM,95.0,70.0,44,30.12,10.0,NNE,4.6,-,N/A,,Mostly Cloudy,30,2013-07-18 17:56:00
1:56 PM,91.9,69.1,47,30.08,10.0,North,3.5,-,N/A,,Scattered Clouds,10,2013-07-18 18:56:00
2:56 PM,91.9,69.1,47,30.04,10.0,SSE,6.9,-,N/A,,Scattered Clouds,150,2013-07-18 19:56:00
3:56 PM,97.0,68.0,39,30.01,10.0,West,3.5,-,N/A,,Scattered Clouds,260,2013-07-18 20:56:00
4:56 PM,97.0,66.0,36,29.98,10.0,Variable,3.5,-,N/A,,Mostly Cloudy,0,2013-07-18 21:56:00
5:56 PM,93.9,68.0,43,29.98,10.0,ESE,4.6,-,N/A,,Mostly Cloudy,120,2013-07-18 22:56:00
6:56 PM,91.9,68.0,45,29.98,10.0,East,5.8,-,N/A,,Mostly Cloudy,100,2013-07-18 23:56:00
7:52 PM,86.0,68.0,55,30.03,10.0,SE,4.6,-,N/A,Thunderstorm,Thunderstorm,140,2013-07-19 00:52:00
7:56 PM,86.0,68.0,55,30.02,10.0,SE,4.6,-,N/A,Thunderstorm,Thunderstorm,140,2013-07-19 00:56:00
8:45 PM,75.2,69.8,83,30.10,3.0,East,11.5,21.9,0.17,Rain-Thunderstorm,Heavy Thunderstorms and Rain,90,2013-07-19 01:45:00
8:56 PM,75.0,71.1,87,30.10,7.0,SSE,11.5,-,0.38,Rain-Thunderstorm,Light Thunderstorms and Rain,150,2013-07-19 01:56:00
9:56 PM,75.0,72.0,90,30.08,7.0,South,10.4,-,0.11,Rain-Thunderstorm,Light Thunderstorms and Rain,180,2013-07-19 02:56:00
10:50 PM,75.2,71.6,89,30.09,7.0,SSE,4.6,-,0.04,Rain,Light Rain,150,2013-07-19 03:50:00
10:56 PM,73.9,72.0,93,30.08,7.0,SSE,3.5,-,0.04,Rain,Light Rain,160,2013-07-19 03:56:00
11:56 PM,73.9,72.0,93,30.04,10.0,South,3.5,-,0.00,,Overcast,190,2013-07-19 04:56:00